Location: ???? ????
(31.2831°N, 45.5190°E)
Time: 05:02:58
(UTC+00:00)

Cosmos 1741 Rocket - Pass Details

Date: 24 February 2021
Orbit: 761 x 782 km, 74.0° (Epoch: 14 April)

Event Time Altitude Azimuth Distance (km) Brightness Sun altitude
Rises 16:00:09 0° 341° (NNW) 3,270 7.5 -15.2°
Reaches altitude 10° 16:02:33 10° 339° (NNW) 2,338 6.8 -15.7°
Maximum altitude 16:07:50 72° 256° (WSW) 819 4.3 -16.9°
Drops below altitude 10° 16:13:05 10° 172° (S) 2,315 6.4 -18.0°
Sets 16:15:27 0° 171° (S) 3,236 7.1 -18.5°
